Hourly Data Report for October 31, 2016

All times are specified in Local Standard Time (LST). Add 1 hour to adjust for Daylight Saving Time where and when it is observed.

KITCHENER/WATERLOO
ONTARIO

43°27'39.000" N
80°22'43.000" W
321.60 m
6144239
71368
YKF

Download Data

Hourly Data (October 2016)
Hourly Data Report for October 31, 2016
Temp Definition
°C
Dew Point Temp Definition
°C
Rel Hum Definition
%
Wind Dir Definition
10's deg

Wind Spd Definition
km/h
Visibility Definition
km
Stn Press Definition
kPa
Hmdx Definition


Wind Chill Definition


Weather Definition


TIME
00:00 Legend Double Dagger -0.8 -1.1 98 34 4 14.5 98.42   -2 LegendNANA
01:00 Legend Double Dagger -1.4 -1.7 98   0 12.9 98.46     LegendNANA
02:00 Legend Double Dagger -1.2 -1.5 98   0 16.1 98.49     LegendNANA
03:00 Legend Double Dagger -2.7 -3.0 98   0 1.0 98.48     Fog
04:00 Legend Double Dagger -2.0 -2.3 98   0 12.9 98.51     LegendNANA
05:00 Legend Double Dagger -3.2 -3.5 98 28 4 11.3 98.55   -5 LegendNANA
06:00 Legend Double Dagger -2.2 -2.5 98   0 16.1 98.60     LegendNANA
07:00 Legend Double Dagger -3.1 -3.4 98 LegendMM 4 8.1 98.60   -5 Fog
08:00 Legend Double Dagger -1.7 -2.0 98   0 16.1 98.64     LegendNANA
09:00 Legend Double Dagger 1.3 1.0 98 7 13 16.1 98.67     LegendNANA
10:00 Legend Double Dagger 4.7 -0.2 70 10 13 16.1 98.68     LegendNANA
11:00 Legend Double Dagger 6.6 0.0 63 14 9 16.1 98.70     LegendNANA
12:00 Legend Double Dagger 7.5 0.0 59 14 9 16.1 98.62     LegendNANA
13:00 Legend Double Dagger 7.3 0.2 60 22 9 16.1 98.56     LegendNANA
14:00 Legend Double Dagger 9.2 1.5 58 15 8 16.1 98.54     LegendNANA
15:00 Legend Double Dagger 8.8 1.0 58 12 8 16.1 98.48     LegendNANA
16:00 Legend Double Dagger 7.8 1.5 64 12 11 16.1 98.42     LegendNANA
17:00 Legend Double Dagger 5.3 1.4 76 11 11 16.1 98.40     LegendNANA
18:00 Legend Double Dagger 3.5 0.6 81 13 11 16.1 98.43     LegendNANA
19:00 Legend Double Dagger 3.1 0.8 85 13 13 16.1 98.41     LegendNANA
20:00 Legend Double Dagger 2.1 0.6 90 10 11 16.1 98.38     LegendNANA
21:00 Legend Double Dagger 1.9 0.3 89 11 11 16.1 98.34     LegendNANA
22:00 Legend Double Dagger 2.8 0.7 86 12 15 16.1 98.23     LegendNANA
23:00 Legend Double Dagger 2.9 -0.7 77 13 18 16.1 98.21     LegendNANA

Notes on Data Quality.

Legend

  • E = Estimated
  • M = Missing
  • NA = Not Available
  • ‡ = Partner data that is not subject to review by the National Climate Archives
Date modified: